Погода в Череповеце

Погода в Череповеце : погода сейчас, прогноз погоды и архив. Всё, что Вы хотите узнать о погоде в Череповеце!

Хотите узнать прогноз погоды в Череповеце? Тогда Вам сюда: Погода в Череповеце

Поиск расширенной информации на нашем сайте:

Полезная информация:

Другие новости

Новости СМИ2

Главная страница сайта

Новости сайта

03.07.2017

Напоминаем, что на нашем специализированном сайте Метеоцентр.Азия вы можете получить высокодетализированные автоматические прогнозы погоды по пунктам России, СНГ и мира в авиационном формате (включающие направление и скорость ветра, видимость, явления погоды, количество и форму облачности, нижнюю и верхнюю границу облачности).

Рекомендуем:

Погода в Череповеце - сегодня

Время (UTC), дата Ветер
(°,м/с) 
Видим.   Явления Облачность Т
(°С)
Тd
(°С)
f(%) Тe
(°С)
Pmin
(гПа)
dP
(гПа)
Po
(мм)
O2
(г/м3)
Тmin Tmax R s Состояние
почвы
21 18.05.19 330 (СЗ) 10 км    1/1 1000 м 
[Sc]
+8.3 +1.8 64 +9  1018.2  0.8  753  294           
00 19.05.19 360 (С) 10 км    ясно 
+4.2 +0.3 76 +5  1019.8  1.4  754  299           
03 19.05.19 360 (С) 10 км    1/0 верхняя 
[Ci fib]
+5.4 +0.2 69 +5  1020.8  755  298  +1.2        сухая 
06 19.05.19 020 (С) 10 км    3/1 1000 м средняя 
[Sc|Ac trans]
+8.8 -1.7 48 +8  1020.6  755  295           
09 19.05.19 010 (С) 10 км    1/0 верхняя 
[Ci fib]
+12 -0.9 41 +11  1020.4  755  291           
12 19.05.19 360 (С) 4{10}  10 км    3/1 1000 м верхняя 
[Sc|Ci fib]
+13.7 -0.9 37 +13  1020.4  0.1  755  290           
15 19.05.19 010 (С) 10 км    ясно 
+14 -1.9 33 +14  1020.4  755  289    +14.7       
18 19.05.19 350 (С) 10 км    1/0 верхняя 
[Ci fib]
+8.3 +0.6 58 +9  1020.6  -0.1  755  295           
21 19.05.19 тихо ()   10 км    ясно 
+3.8 +1.2 83 +4  1021.7  0.9  755  300           
00 20.05.19 тихо ()   10 км    1/0 верхняя 
[Ci fib]
-0.2 -1.1 94 -0  1023.5  1.5  756  305           
03 20.05.19 тихо ()   10 км    3/0 верхняя 
[Ci fib]
+3.7 +1.1 83 +4  1023.7  0.4  757  301  -0.6        сухая 
06 20.05.19 340 (С) 10 км    4/0 верхняя 
[Ci fib]
+12 +0.1 44 +12  1023.2  -0.1  757  292           
09 20.05.19 360 (С) 10 км    8/0 верхняя 
[Ci]
+14.6 -1.2 34 +15  1022.4  -0.7  756  289           
12 20.05.19 360 (С) 10 км    5/0 верхняя 
[Ci fib]
+17.3 -3.2 24 +18  1021.6  -0.7  756  287           
15 20.05.19 010 (С) 10 км    6/0 средняя, верхняя 
[Ac trans|Ci fib]
+16.2 -2.1 28 +17  1020.8  -0.7  755  287    +18       
18 20.05.19 010 (С) 10 км    4/0 средняя, верхняя 
[Ac trans|Ci fib]
+9.4 +2.3 61 +10  1021  -0.1  755  294           
21 20.05.19 тихо ()   10 км    8/0 средняя, верхняя 
[Ac trans|Ci]
+5.1 +2.7 84 +5  1021.1  -0.2  755  298           
00 21.05.19 тихо ()   10 км    10/3 1000 м средняя 
[Sc|Ac trans]
+5 +3.6 91 +5  1021.4  0.3  755  298           
03 21.05.19 тихо ()   10 км  слаб. дождь  10/0 средняя 
[Ac As]
+7 +5 87 +7  1021.2  -0.1  755  296  +4    0.0    влажная 
06 21.05.19 тихо ()   10 км  слаб. дождь  10/0 средняя 
[Ac As]
+9.3 +8.5 95 +9  1020.5  -0.5  755  293           
09 21.05.19 140 (ЮВ) 10 км  слаб. дождь  10/8 150 м средняя 
[Frnb|Ac As]
+11.3 +9.9 91 +12  1019  -1.4  754  290           
12 21.05.19 110 (В) 10 км  в посл. час ливневой дождь  10/6 400 м кучево-дожд., средняя 
[Cb calv|Ac trans]
+12.8 +10.5 86 +14  1017.6  -1.3  753  288           
15 21.05.19 130 (ЮВ) 10 км  слаб. ливневой дождь  10/4 300 м кучево-дожд., средняя 
[Cb calv|Ac trans]
+12.6 +10.7 88 +15  1015.9  -1.7  751  287    +12.9     
18 21.05.19 050 (СВ) 10 км    10/4 600 м кучево-дожд., средняя 
[Cb calv|Ac trans]
+11.1 +10.3 95 +13  1014.5  -1.4  750  289           
21 21.05.19 060 (СВ) 8000 м  слаб. ливневой дождь  10/10 60 м кучево-дожд. 
[Cb calv]
+10.4 +10 97 +12  1013.8  -0.8  750  289           
Время (UTC), дата Ветер
(°,м/с) 
Видим.   Явления Облачность Т
(°С)
Тd
(°С)
f(%) Тe
(°С)
Pmin
(гПа)
dP
(гПа)
Po
(мм)
O2
(г/м3)
Тmin Tmax R s Состояние
почвы

Для получения пояснительной информации подведите курсор к названию столбца.

ПОГОДА в Череповеце - архив

Всё, что Вы хотите узнать о погоде в Череповеце - удобно и подробно!

Выберите нужную дату (начиная с 1 января 2018* года) и нажмите кнопку "Найти".
Будут отображены архивные сводки погоды по пункту Череповец, начиная с указанной даты.


Отображать данные в формате CSV (для использования в таблицах Excel)


Внимание! Наш архив погоды предназначен исключительно для личного некоммерческого использования в познавательных целях. Если Вам необходимы официальные справки о состоянии погоды (для производственных, юридических, коммерческих и т.п. целей), обращайтесь в органы Росгидромета.

*Примечание: данная дата относится к архиву по метеостанциям СССР (Россия, СНГ, Балтия).
Архив по метеостанциям Зарубежной Европы и Азии (кроме Китая) хранится 10 дней, по другим регионам земного шара (Китай, Африка, Америка, Австралия, Океания) - 1 день.

Череповец - район местоположения метеостанции


Название, широта, долгота, высота метеостанции:
Череповец 59.2°ш. 38°д. 114 м над ур. моря [Российская Федерация]

Дополнительная информация

В oтличие oт бoльшинства пoгoдных сайтoв мы публикуем пoдрoбную метеoинфoрмацию в детальнoм прoфессиoнальнoм фoрмате.

Характеристики температуры и влажнoсти вoздуха измеряются на высoте 2 м в тени вдали oт зданий и деревьев.
Скoрoсть ветра измеряется на высoте 10 м (на урoвне рoста челoвека скoрoсть ветра ниже в 1.5-2 раза). Если метеoстанция нахoдится в гoрoде или в лесу, тo скoрoсть ветра занижена на 2-4 м/с пo сравнению с oткрытым местoм. Скoрoсть ветра над акватoриями крупных рек и oзёр, а также на вершинах хoлмoв на 2-5 м/с выше, чем в oбычных услoвиях.
Атмoсфернoе давление в разных тoчках местнoсти мoжет значительнo oтличаться oт давления на метеoстанции, в зависимoсти oт услoвий рельефа (при пoдъёме на 10 м давление пoнижается примернo на 1 мм рт.ст.).